User: anonymous   Login
Location: Unspecified
(0.0000°N, 0.0000°E)
Time: 20:39:12
(UTC+00:00)
Language:

OBJECT Y - Orbit

View from above orbital plane
View from above orbital plane
View from above satellite
View from above satellite

Ground track
Ground track

The orbit data is extracted from the following two-line orbital elements,

1 43133U 18004Y   19169.43265585  .00000533  00000-0  25542-4 0  9994
2 43133  97.4877 237.0940 0008108 252.5929 107.4421 15.23211769 79444
Epoch (UTC): 18 June 2019 10:23:01
Eccentricity: 0.0008108
inclination: 97.4877°
perigee height: 490 km
apogee height: 502 km
right ascension of ascending node: 237.0940°
argument of perigee: 252.5929°
revolutions per day: 15.23211769
mean anomaly at epoch: 107.4421°
orbit number at epoch: 7944

The dashed part of the orbit path shows where the satellite is in the earth's shadow,  

DLR